Wellsville, NY

6:07 PM EST on November 20, 2017 (GMT -0500)
Wellsville Municipal-Tarantine

Weather History for KELZ - May, 2013

Change the Weather History Date:

Sunday, May 26, 2013

  Actual Average (KDSV) Record (KDSV)
Temperature  
Mean Temperature 46 °F -  
Max Temperature 59 °F 72 °F 88 °F (1950)
Min Temperature 36 °F 47 °F 32 °F (1969)
Degree Days  
Heating Degree Days 18    
Moisture  
Dew Point 30 °F    
Average Humidity 55    
Maximum Humidity 79    
Minimum Humidity 32    
Precipitation  
Precipitation 0.00 in - - ()
Sea Level Pressure  
Sea Level Pressure 30.22 in    
Wind  
Wind Speed 13 mph (NW)    
Max Wind Speed 22 mph    
Max Gust Speed 30 mph    
Visibility 10 miles    
Events      
Averages and records for this station are not official NWS values.
T = Trace of Precipitation, MM = Missing Value Source: NWS Daily Summary

Daily Weather History Graph

Daily Weather History Graph

Search for Another Location

Airport or City:

Trip Planner

Search our weather history database for the weather conditions in past years. The results will help you decide how hot, cold, wet, or windy it might be!

Date:

Astronomy

May. 26, 2013 Rise Set
Actual Time 5:41 AM EDT 8:36 PM EDT
Civil Twilight 5:08 AM EDT 9:10 PM EDT
Nautical Twilight 4:26 AM EDT 9:52 PM EDT
Astronomical Twilight 3:37 AM EDT 10:41 PM EDT
Moon 10:21 PM EDT (5/26) 7:09 AM EDT (5/26)
Length of Visible Light 16h 01m
Length of Day
14h 54m
Waning Gibbous, 97% of the Moon is Illuminated
May 26
Waning Gibbous
May 31
Last Quarter
Jun 8
New
Jun 16
First Quarter
Jun 23
Full

Hourly Weather History & Observations

Time (EDT) Temp. Windchill Dew Point Humidity Pressure Visibility Wind Dir Wind Speed Gust Speed Precip Events Conditions
12:56 AM 39.9 °F 32.9 °F 30.9 °F 70% 30.19 in 10.0 mi NW 11.5 mph - N/A   Clear
1:56 AM 37.9 °F 30.9 °F 30.9 °F 76% 30.18 in 10.0 mi WNW 10.4 mph - N/A   Clear
2:56 AM 37.9 °F 30.5 °F 30.9 °F 76% 30.17 in 10.0 mi WNW 11.5 mph - N/A   Clear
3:56 AM 37.0 °F 29.8 °F 30.9 °F 79% 30.16 in 10.0 mi WNW 10.4 mph - N/A   Clear
4:56 AM 36.0 °F 29.0 °F 30.0 °F 79% 30.18 in 10.0 mi WNW 9.2 mph - N/A   Clear
5:56 AM 37.0 °F 28.5 °F 30.9 °F 79% 30.19 in 10.0 mi WNW 13.8 mph - N/A   Clear
6:56 AM 39.0 °F 31.4 °F 32.0 °F 76% 30.20 in 10.0 mi WNW 12.7 mph - N/A   Clear
7:56 AM 43.0 °F 35.7 °F 33.1 °F 68% 30.21 in 10.0 mi NW 15.0 mph - N/A   Clear
8:56 AM 46.9 °F - 33.1 °F 59% 30.22 in 10.0 mi NW 18.4 mph 25.3 mph N/A   Clear
9:56 AM 50.0 °F - 30.0 °F 46% 30.22 in 10.0 mi NW 17.3 mph 29.9 mph N/A   Clear
10:56 AM 52.0 °F - 30.9 °F 45% 30.21 in 10.0 mi NNW 16.1 mph 28.8 mph N/A   Clear
11:56 AM 54.0 °F - 30.0 °F 40% 30.22 in 10.0 mi NNW 21.9 mph 28.8 mph N/A   Clear
12:56 PM 55.9 °F - 30.9 °F 39% 30.22 in 10.0 mi NW 16.1 mph 25.3 mph N/A   Clear
1:56 PM 57.0 °F - 30.9 °F 37% 30.22 in 10.0 mi NW 16.1 mph 24.2 mph N/A   Clear
2:56 PM 57.0 °F - 30.0 °F 36% 30.23 in 10.0 mi NW 17.3 mph 27.6 mph N/A   Clear
3:56 PM 57.9 °F - 30.9 °F 36% 30.22 in 10.0 mi NW 19.6 mph 25.3 mph N/A   Clear
4:56 PM 57.0 °F - 27.0 °F 32% 30.23 in 10.0 mi NW 16.1 mph 24.2 mph N/A   Clear
5:56 PM 57.0 °F - 28.0 °F 33% 30.23 in 10.0 mi NW 16.1 mph 23.0 mph N/A   Clear
6:56 PM 55.0 °F - 28.0 °F 35% 30.23 in 10.0 mi NW 11.5 mph 19.6 mph N/A   Clear
7:56 PM 53.1 °F - 28.0 °F 38% 30.23 in 10.0 mi NW 11.5 mph - N/A   Clear
8:56 PM 48.0 °F - 30.0 °F 50% 30.24 in 10.0 mi NW 8.1 mph - N/A   Clear
9:56 PM 43.0 °F 38.8 °F 30.9 °F 62% 30.25 in 10.0 mi WNW 6.9 mph - N/A   Clear
10:56 PM 46.0 °F 42.5 °F 30.9 °F 56% 30.25 in 10.0 mi NW 6.9 mph - N/A   Clear
11:56 PM 41.0 °F 37.1 °F 30.9 °F 67% 30.27 in 10.0 mi WNW 5.8 mph - N/A   Clear